Location: Trout Lake
(45.9980°N, 121.5270°W)
Time: 19:24:47
(UTC-08:00)

Cosmos 1190 Rocket - Pass Details

Date: 06 December 2023
Orbit: 756 x 777 km, 74.1° (Epoch: 22 February)

Event Time Altitude Azimuth Distance (km) Brightness Sun altitude
Rises 17:21:57 0° 343° (NNW) 3,269 7.2 -10.2°
Reaches altitude 10° 17:24:30 10° 352° (N) 2,336 6.4 -10.6°
Maximum altitude 17:29:27 39° 60° (ENE) 1,163 4.5 -11.4°
Drops below altitude 10° 17:34:22 10° 129° (SE) 2,314 6.2 -12.2°
Sets 17:36:53 0° 137° (SE) 3,234 7.0 -12.6°
